Location: Newark
(39.4242°N, 80.8531°W)
Time: 15:02:15
(UTC+00:00)

Gurwin Techsat 1B - Visible Passes

Search period start: 04 April 2020 00:00
Search period end: 14 April 2020 00:00
Orbit: 813 x 813 km, 98.7° (Epoch: 04 April)

Date Brightness Start Highest point End Pass type
(mag) Time Alt. Az. Time Alt. Az. Time Alt. Az.
04 Apr 10.1 07:45:35 10° N 07:48:15 29° N 07:48:15 29° N visible
05 Apr 10.3 07:22:38 10° NNE 07:25:13 30° NNE 07:25:13 30° NNE visible
05 Apr 10.7 09:05:04 10° NW 09:06:25 12° NW 09:06:25 12° NW visible
06 Apr 10.6 06:59:53 10° NNE 07:02:10 25° NNE 07:02:10 25° NNE visible
06 Apr 10.4 08:40:53 10° NNW 08:43:23 18° NW 08:43:23 18° NW visible
07 Apr 10.9 06:37:22 10° NNE 06:39:08 19° NE 06:39:08 19° NE visible
07 Apr 10.1 08:17:22 10° N 08:20:21 26° NW 08:20:21 26° NW visible
08 Apr 11.3 06:15:14 10° NE 06:16:06 13° NE 06:16:06 13° NE visible
08 Apr 9.8 07:54:09 10° N 07:57:19 33° NNW 07:57:19 33° NNW visible
09 Apr 9.9 07:31:08 10° N 07:34:16 37° N 07:34:16 37° N visible
09 Apr 10.8 09:14:59 10° NW 09:15:29 10° WNW 09:15:29 10° WNW visible
10 Apr 10.1 07:08:19 10° NNE 07:11:14 33° NNE 07:11:14 33° NNE visible
10 Apr 10.4 08:49:44 10° NNW 08:52:26 16° NW 08:52:26 16° NW visible
11 Apr 10.6 06:45:42 10° NNE 06:48:11 25° NE 06:48:11 25° NE visible
11 Apr 10.0 08:26:03 10° NNW 08:29:24 24° NW 08:29:24 24° NW visible
12 Apr 11.0 06:23:23 10° NE 06:25:08 17° ENE 06:25:08 17° ENE visible
12 Apr 9.7 08:02:44 10° N 08:06:21 34° NW 08:06:21 34° NW visible
13 Apr 11.3 06:01:42 10° ENE 06:02:06 11° ENE 06:02:06 11° ENE visible
13 Apr 9.5 07:39:39 10° N 07:43:19 43° N 07:43:19 43° N visible
